Regional Weather Roundup
Issued by NWS

Home | Current Version | Previous Version | Text Only | Print | Product List | Glossary Off
Versions: 1 2 3 4 5 6 7 8 9 10 11 12 13 14 15 16 17 18 19 20 21 22 23 24 25 26 27 28 29 30 31 32 33 34 35 36 37 38 39 40 41 42 43 44 45 46 47 48 49 50

000
ASUS45 KTFX 271010
RWRMT
MONTANA REGIONAL WEATHER ROUNDUP
NATIONAL WEATHER SERVICE GREAT FALLS MT
400 AM MDT FRI MAY 27 2016

NOTE: "FAIR" INDICATES FEW OR NO CLOUDS BELOW 12000 FEET WITH NO
SIGNIFICANT WEATHER AND/OR OBSTRUCTIONS TO VISIBILITY.

MTZ001>007-043-271100-
WEST OF THE DIVIDE

CITY           SKY/WX    TMP DP  RH WIND       PRES   REMARKS
KALISPELL      PTCLDY    45  45 100 NE3       29.89S FOG
MISSOULA       MOCLDY    47  46  97 W5        29.94S
BUTTE          LGT RAIN  43  40  89 SW6       29.98F
MULLAN PASS    MOCLDY    37  33  85 VRB3      29.96S
ANACONDA         N/A     45  43  93 SW5       29.95F
DEER LODGE       N/A     46  43  87 W6        29.96F
EUREKA           N/A     50  43  76 SE8       29.87S
HAMILTON         N/A     46  39  76 S6        29.93S
LIBBY            N/A     46  43  87 CALM      29.89S
$$

MTZ008-052>055-271100-
SOUTHWEST MONTANA

CITY           SKY/WX    TMP DP  RH WIND       PRES   REMARKS
BOZEMAN        CLEAR     39  37  92 SE5       29.93F
DILLON         CLOUDY    47  40  76 SE3       29.94F
W YELLOWSTONE  FOG       32  32 100 CALM      30.01S VSB 1/4
ENNIS          CLOUDY    41  37  87 CALM      30.00S
$$

MTZ009-010-012-014-046-048-049-054-271100-
EAST SLOPES AND CENTRAL MONTANA

CITY           SKY/WX    TMP DP  RH WIND       PRES   REMARKS
CUT BANK       CLOUDY    46  42  86 SW5       29.86F
GREAT FALLS    CLEAR     44  41  89 S6        29.87F
MALMSTROM AFB  CLEAR     40  40  98 S5        29.88F
HELENA         CLOUDY    48  43  82 W7        29.91S
CHOTEAU          N/A     46  45  93 SW6       29.87F
$$

MTZ011-013-016-021-045-047-050-051-271100-
NORTH CENTRAL MONTANA

CITY           SKY/WX    TMP DP  RH WIND       PRES   REMARKS
HAVRE          PTCLDY    47  46  97 E7        29.86F
LEWISTOWN      CLEAR     39  36  89 SE7       29.90S
N BAR RANCH      N/A     39  37  93 CALM      29.95R
CHINOOK          N/A     46  46 100 NE5       29.87F
$$

MTZ017>020-022>027-061-062-271100-
NORTHEAST MONTANA

CITY           SKY/WX    TMP DP  RH WIND       PRES   REMARKS
GLASGOW        PTCLDY    48  46  93 NE8       29.87R
JORDAN           N/A     52  50  93 NE5       29.87R
SIDNEY         CLEAR     48  46  93 N5        29.87S
WOLF POINT     CLEAR     46  44  93 CALM      29.89R
POPLAR           N/A     48  46  93 CALM      29.89R
$$

MTZ028>42-056>058-271100-
SOUTHCENTRAL AND SOUTHEAST MONTANA

CITY           SKY/WX    TMP DP  RH WIND       PRES   REMARKS
BAKER          CLEAR     41  39  93 CALM      29.86F
BILLINGS       MOCLDY    49  44  83 SW9       29.92R
LIVINGSTON     CLEAR     40  36  86 S6        29.93S
MILES CITY     CLOUDY    52  48  86 W7        29.86S
FORSYTH          N/A     52  48  87 W6        29.87S
$$

REGIONAL REPORTS...DAKOTAS

CITY           SKY/WX    TMP DP  RH WIND       PRES   REMARKS
WILLISTON      MOCLDY    47  45  93 CALM      29.87S
MINOT          CLOUDY    56  54  93 CALM      29.83R FOG
DICKINSON      CLEAR     40  39  97 NW3       29.83S
BEACH          CLOUDY    45  45 100 CALM      29.89R
CROSBY         CLOUDY    50  50 100 NW10      29.87F
WATFORD CITY   FOG       41  41 100 CALM      29.87F VSB 1/4
BISMARCK       PTCLDY    48  47  96 NW3       29.83S
GRAND FORKS    PTCLDY    52  50  93 N6        29.78S
FARGO          CLEAR     56  53  90 SE9       29.76S
BUFFALO SD       N/A     48  42  80 SE6       29.80S
RAPID CITY     CLOUDY    50  44  80 NW6       29.86S
$$

REGIONAL REPORTS...WYOMING/IDAHO/WASHINGTON

CITY           SKY/WX    TMP DP  RH WIND       PRES   REMARKS
GILLETTE       CLOUDY    44  40  85 SW3       29.90S
SHERIDAN       CLOUDY    45  40  82 SE3       29.90F
BUFFALO WY       N/A     45  37  73 MISG      29.93S
CODY           CLEAR     43  36  75 CALM      29.94F
YELLOWSTONE LA   N/A     32  31  96 CALM      30.05F
IDAHO FALLS    CLEAR     49  38  65 S12       29.93S
SALMON         CLOUDY    52  41  66 CALM      29.92S
BOISE          CLEAR     53  40  61 NW7       29.93R
SPOKANE        CLOUDY    48  39  71 SW20G25   29.92R
$$

REGIONAL REPORTS...ALBERTA

CITY           SKY/WX    TMP DP  RH WIND       PRES   REMARKS
EDMONTON       CLOUDY    50  48  93 W2        29.79F
CALGARY        CLOUDY    48  45  87 N18G28    29.78S
LETHBRIDGE     MOCLDY    50  43  76 S15G21    29.80F
MEDICINE HAT   PTCLDY    55  46  71 S5        29.82F
WATERTON GATE    N/A     46  37  71 SW7         N/A
MILK RIVER       N/A     41  39  93 S3          N/A
$$

REGIONAL REPORTS...SASKATCHEWAN

CITY           SKY/WX    TMP DP  RH WIND       PRES   REMARKS
SWIFT CURRENT  CLEAR     46  45  93 S7        29.87F
REGINA         PTCLDY    48  46  93 NW7       29.86F
SASKATOON      MOCLDY    54  52  94 W3        29.88S
CYPRESS HILLS    N/A     43  39  87 S6          N/A
VAL MARIE        N/A     39  37  93 CALM        N/A
ROCKGLEN         N/A     45  45 100 N6          N/A
ASSINIBOIA       N/A     54  52  94 E5          N/A
$$



USA.gov is the U.S. government's official web portal to all federal, state and local government web resources and services.